Glens Falls, NY
on Thursday, December 7, 2017

Thursday
       
Previous Day Next Day
Daily Summary
 ActualAverageRecord
Temperature
Mean Temperature °F °C 28°F -2°C  
Max Temperature 40°F 4°C 37°F 3°C 67°F 19°C (1998)
Min Temperature 31°F -1°C 20°F -7°C 0°F -17°C (1964)
Degree Days
Heating Degree Days 29 36  
Month to date heating degree days 201 246  
Since 1 July heating degree days 1612 1944  
Cooling Degree Days 0 0  
Month to date cooling degree days 0 0  
Year to date cooling degree days 388 352  
Moisture
Dew Point 23°F -5°C   
Average Humidity 63    
Maximum Humidity 78    
Minimum Humidity 48    
Precipitation
Precipitation 0.00 in / 0.00 cm 0.11 in / 2.79 cm 1.39 in / 3.53 cm (1976)
Month to date precipitation 0.75 0.78  
Year to date precipitation 34.27 36.79  
Wind
Wind Speed 9 mph / 14 km/h   
Max Wind Speed 17 mph / 27 km/h   
Max Gust Speed 24 mph / 39 km/h   
Visibility 10 miles / 16 kilometers   
Events     

Key: T is trace of precipitation, MM is missing value
Source: NWS Daily Summary
Time(EST)TemperatureDew PointHumidity Pressure Visibility Wind DirectionWind SpeedGust SpeedPrecipitationEvents Conditions
12:53 AM 34.0°F 1.1°C 21.0°F -6.1°C 59% 29.88 in / 1011.8 hPa 10.0 miles / 16.1 kilometers South 8.1 mph / 13.0 km/h - N/A   Overcast
1:53 AM 34.0°F 1.1°C 21.9°F -5.6°C 61% 29.89 in / 1012.1 hPa 10.0 miles / 16.1 kilometers South 6.9 mph / 11.1 km/h - N/A   Overcast
2:53 AM 35.1°F 1.7°C 23.0°F -5.0°C 61% 29.89 in / 1012.0 hPa 10.0 miles / 16.1 kilometers SSW 9.2 mph / 14.8 km/h - N/A   Overcast
3:53 AM 35.1°F 1.7°C 23.0°F -5.0°C 61% 29.88 in / 1011.7 hPa 10.0 miles / 16.1 kilometers SW 6.9 mph / 11.1 km/h - N/A   Mostly Cloudy
4:53 AM 34.0°F 1.1°C 21.9°F -5.6°C 61% 29.88 in / 1011.9 hPa 10.0 miles / 16.1 kilometers SSW 8.1 mph / 13.0 km/h - N/A   Clear
5:53 AM 33.1°F 0.6°C 23.0°F -5.0°C 66% 29.90 in / 1012.5 hPa 10.0 miles / 16.1 kilometers SW 6.9 mph / 11.1 km/h - N/A   Partly Cloudy
6:53 AM 30.9°F -0.6°C 24.1°F -4.4°C 76% 29.91 in / 1012.9 hPa 10.0 miles / 16.1 kilometers South 4.6 mph / 7.4 km/h - N/A   Overcast
7:53 AM 35.1°F 1.7°C 21.9°F -5.6°C 59% 29.92 in / 1013.0 hPa 10.0 miles / 16.1 kilometers SSW 10.4 mph / 16.7 km/h - N/A   Overcast
8:53 AM 36.0°F 2.2°C 21.9°F -5.6°C 57% 29.93 in / 1013.3 hPa 10.0 miles / 16.1 kilometers SSW 9.2 mph / 14.8 km/h - N/A   Overcast
9:53 AM 36.0°F 2.2°C 23.0°F -5.0°C 59% 29.94 in / 1013.6 hPa 10.0 miles / 16.1 kilometers WSW 10.4 mph / 16.7 km/h - N/A   Overcast
10:53 AM 37.0°F 2.8°C 23.0°F -5.0°C 57% 29.93 in / 1013.4 hPa 10.0 miles / 16.1 kilometers WSW 9.2 mph / 14.8 km/h - N/A   Overcast
11:53 AM 39.0°F 3.9°C 24.1°F -4.4°C 55% 29.91 in / 1012.8 hPa 10.0 miles / 16.1 kilometers SSW 13.8 mph / 22.2 km/h 20.7 mph / 33.3 km/h N/A   Overcast
12:53 PM 39.9°F 4.4°C 21.9°F -5.6°C 49% 29.89 in / 1012.2 hPa 10.0 miles / 16.1 kilometers SW 18.4 mph / 29.6 km/h 24.2 mph / 38.9 km/h N/A   Overcast
1:53 PM 37.0°F 2.8°C 21.9°F -5.6°C 54% 29.89 in / 1012.1 hPa 10.0 miles / 16.1 kilometers SW 9.2 mph / 14.8 km/h 23.0 mph / 37.0 km/h N/A   Overcast
2:53 PM 37.0°F 2.8°C 23.0°F -5.0°C 57% 29.89 in / 1012.2 hPa 10.0 miles / 16.1 kilometers SW 6.9 mph / 11.1 km/h - N/A   Mostly Cloudy
3:53 PM 35.1°F 1.7°C 23.0°F -5.0°C 61% 29.89 in / 1012.1 hPa 10.0 miles / 16.1 kilometers SW 6.9 mph / 11.1 km/h - N/A   Overcast
4:53 PM 35.1°F 1.7°C 23.0°F -5.0°C 61% 29.91 in / 1012.6 hPa 10.0 miles / 16.1 kilometers WSW 10.4 mph / 16.7 km/h - N/A   Overcast
5:53 PM 34.0°F 1.1°C 24.1°F -4.4°C 67% 29.91 in / 1012.9 hPa 10.0 miles / 16.1 kilometers SW 10.4 mph / 16.7 km/h - N/A   Overcast
6:53 PM 34.0°F 1.1°C 21.9°F -5.6°C 61% 29.92 in / 1013.2 hPa 10.0 miles / 16.1 kilometers SW 6.9 mph / 11.1 km/h - N/A   Overcast
7:53 PM 33.1°F 0.6°C 24.1°F -4.4°C 70% 29.93 in / 1013.3 hPa 10.0 miles / 16.1 kilometers SW 6.9 mph / 11.1 km/h - N/A   Overcast
8:53 PM 32.0°F 0.0°C 23.0°F -5.0°C 69% 29.94 in / 1013.6 hPa 10.0 miles / 16.1 kilometers SW 9.2 mph / 14.8 km/h - N/A   Overcast
9:53 PM 30.9°F -0.6°C 23.0°F -5.0°C 72% 29.94 in / 1013.9 hPa 10.0 miles / 16.1 kilometers SW 10.4 mph / 16.7 km/h - N/A   Clear
10:53 PM 30.9°F -0.6°C 21.9°F -5.6°C 69% 29.95 in / 1014.1 hPa 10.0 miles / 16.1 kilometers SW 8.1 mph / 13.0 km/h - N/A   Scattered Clouds
11:53 PM 30.9°F -0.6°C 21.9°F -5.6°C 69% 29.95 in / 1014.2 hPa 10.0 miles / 16.1 kilometers South 9.2 mph / 14.8 km/h - N/A   Overcast